Temperature
0 0 0 0 0 0 0 -0 -0 -0 -0 0 0 0 0 0 0 0 0 0 0 0 0 -0 -0 -0 0 0 -0 -0 -0 -0 -0 0 0 1 1 1 1 1 1 1 1
-1 -1 -1 -1 -1 -1 -0 -1 -1 -1 -1 -1 -1 -1 -0 -0 -1 -1 -1 -1 -1 -1 -1 -1 -1 -1 -1 -1 -1 -1 -1 -1 -1 -1 -1 -0 0 0 0 0 0 0 0
-1 -1 -1 -1 -1 -1 -1 -1 -1 -1 -2 -2 -1 -1 -1 -1 -1 -1 -1 -2 -2 -1 -1 -1 -1 -1 -1 -1 -2 -2 -2 -2 -2 -2 -1 -1 -1 -1 -1 -1 -1 -1 -0
-2 -2 -2 -2 -2 -2 -2 -2 -2 -2 -2 -2 -2 -2 -2 -2 -2 -2 -2 -2 -2 -2 -2 -2 -2 -2 -2 -2 -2 -2 -2 -2 -3 -3 -3 -2 -2 -2 -2 -2 -2 -1 -1
-3 -3 -3 -3 -3 -3 -3 -3 -3 -3 -3 -3 -3 -3 -3 -3 -3 -3 -3 -3 -3 -3 -3 -3 -3 -2 -3 -3 -3 -3 -3 -3 -3 -3 -3 -3 -3 -3 -3 -3 -3 -3 -2
-4 -4 -4 -4 -4 -4 -4 -4 -4 -4 -4 -4 -4 -4 -4 -4 -4 -4 -4 -4 -4 -4 -4 -4 -4 -3 -3 -3 -3 -3 -4 -4 -4 -4 -4 -4 -4 -4 -4 -4 -4 -4 -4
-5 -5 -5 -4 -4 -4 -4 -4 -5 -5 -5 -5 -5 -5 -5 -5 -5 -5 -5 -5 -5 -5 -5 -5 -4 -4 -4 -4 -4 -4 -4 -4 -4 -4 -4 -4 -4 -4 -4 -4 -4 -4 -4
-5 -5 -5 -5 -5 -5 -5 -5 -5 -5 -6 -6 -6 -6 -6 -6 -6 -6 -6 -6 -6 -6 -6 -5 -5 -5 -5 -5 -5 -5 -5 -5 -5 -5 -5 -5 -5 -5 -5 -5 -5 -5 -5
-6 -6 -6 -6 -6 -6 -6 -6 -6 -6 -6 -6 -6 -6 -6 -6 -6 -6 -6 -6 -6 -6 -6 -6 -6 -6 -6 -6 -6 -6 -5 -5 -5 -5 -6 -5 -5 -5 -5 -5 -6 -6 -6
-7 -7 -7 -7 -7 -7 -7 -7 -7 -7 -7 -7 -7 -7 -7 -7 -7 -7 -7 -7 -7 -7 -7 -7 -7 -7 -6 -6 -6 -6 -6 -6 -6 -6 -6 -6 -6 -6 -6 -6 -6 -6 -7
-8 -8 -8 -8 -8 -8 -8 -8 -8 -8 -8 -8 -8 -8 -8 -8 -8 -8 -8 -8 -8 -8 -8 -7 -7 -7 -7 -7 -7 -7 -7 -7 -7 -7 -7 -7 -7 -7 -6 -7 -7 -7 -7
-8 -9 -9 -9 -9 -8 -9 -9 -9 -9 -9 -9 -9 -9 -9 -9 -9 -9 -8 -9 -8 -8 -8 -8 -8 -8 -8 -8 -8 -8 -8 -8 -8 -8 -8 -8 -7 -7 -7 -7 -7 -8 -8
-9 -9 -10 -9 -9 -9 -10 -10 -10 -10 -10 -10 -10 -10 -10 -10 -9 -9 -9 -9 -9 -9 -9 -9 -9 -9 -9 -9 -8 -8 -8 -8 -8 -8 -8 -8 -8 -8 -8 -8 -8 -8 -8
-10 -10 -10 -10 -10 -10 -11 -11 -11 -11 -11 -11 -11 -11 -11 -10 -10 -10 -10 -10 -10 -10 -10 -10 -10 -10 -9 -9 -9 -9 -9 -9 -9 -9 -9 -9 -9 -9 -9 -9 -9 -9 -9
-11 -11 -11 -11 -11 -11 -11 -12 -12 -12 -12 -12 -12 -11 -11 -11 -11 -11 -11 -11 -11 -10 -10 -10 -10 -10 -10 -10 -10 -10 -10 -9 -9 -9 -9 -9 -9 -9 -9 -9 -9 -10 -10
-12 -12 -12 -12 -12 -12 -12 -12 -12 -12 -12 -12 -12 -12 -12 -12 -12 -12 -11 -11 -11 -11 -11 -11 -11 -11 -11 -10 -10 -10 -10 -10 -10 -10 -10 -10 -10 -10 -10 -10 -10 -10 -10
-13 -13 -13 -13 -13 -13 -13 -13 -13 -13 -13 -13 -13 -13 -13 -12 -12 -12 -12 -12 -12 -12 -12 -12 -11 -11 -11 -11 -11 -11 -11 -11 -11 -11 -11 -11 -11 -11 -11 -11 -11 -11 -11
-13 -14 -14 -14 -14 -14 -14 -14 -14 -14 -14 -13 -13 -13 -13 -13 -13 -13 -13 -13 -13 -12 -12 -12 -12 -12 -12 -12 -12 -12 -12 -12 -12 -12 -12 -12 -12 -12 -12 -12 -12 -12 -12
-14 -14 -14 -14 -14 -14 -14 -14 -15 -15 -15 -14 -14 -14 -14 -14 -14 -13 -13 -13 -13 -13 -13 -13 -13 -13 -13 -13 -13 -12 -12 -12 -12 -12 -12 -12 -12 -12 -12 -12 -12 -12 -12
-14 -15 -15 -15 -15 -15 -15 -15 -15 -15 -15 -15 -15 -15 -15 -14 -14 -14 -14 -14 -14 -14 -14 -14 -14 -14 -13 -13 -13 -13 -13 -13 -13 -13 -13 -13 -13 -13 -13 -13 -13 -13 -13
-15 -15 -15 -15 -15 -15 -15 -16 -16 -16 -16 -16 -16 -16 -15 -15 -15 -15 -15 -15 -14 -14 -14 -14 -14 -14 -14 -14 -14 -14 -14 -14 -14 -14 -14 -13 -13 -13 -13 -13 -13 -13 -13
-16 -16 -16 -16 -16 -16 -16 -16 -16 -16 -16 -16 -16 -16 -16 -16 -16 -15 -15 -15 -15 -15 -15 -15 -15 -15 -15 -14 -14 -14 -14 -14 -14 -14 -14 -14 -14 -14 -14 -14 -14 -13 -13
-16 -16 -16 -16 -16 -16 -17 -16 -17 -17 -17 -17 -17 -16 -16 -16 -16 -16 -16 -16 -15 -15 -15 -15 -15 -15 -15 -15 -15 -15 -15 -15 -15 -15 -15 -15 -14 -14 -14 -14 -14 -14 -14
-16 -17 -17 -17 -17 -17 -17 -17 -17 -17 -17 -17 -17 -17 -17 -17 -17 -16 -16 -16 -16 -16 -16 -16 -16 -16 -16 -15 -15 -15 -15 -15 -15 -15 -15 -15 -15 -15 -15 -14 -14 -14 -14
-17 -17 -17 -17 -17 -17 -17 -17 -17 -17 -17 -17 -17 -17 -17 -17 -17 -17 -17 -16 -16 -16 -16 -16 -16 -16 -16 -16 -16 -16 -16 -15 -15 -15 -15 -15 -15 -15 -15 -15 -14 -14 -14
-17 -17 -18 -18 -18 -18 -18 -18 -18 -18 -18 -18 -18 -18 -18 -17 -17 -17 -17 -17 -17 -17 -16 -16 -16 -16 -16 -16 -16 -16 -16 -16 -16 -16 -15 -15 -15 -15 -15 -15 -15 -15 -15
Wind_Speed
0 1 1 1 1 1 0 1 1 1 1 2 2 3 3 3 3 3 3 3 4 3 3 4 4 3 3 3 2 2 2 3 6 5 3 2 2 3 5 6 7 7 8
1 1 1 1 1 1 1 1 1 1 1 1 2 2 3 3 3 4 4 4 5 5 5 4 5 4 4 3 3 3 3 3 4 6 4 3 4 4 4 4 5 6 7
1 1 1 1 1 1 1 1 1 1 1 1 1 3 3 3 4 4 4 4 5 5 5 5 5 5 5 4 4 4 4 4 4 5 5 3 3 2 3 3 4 5 7
1 1 2 2 2 2 1 1 1 1 1 2 2 3 3 3 4 4 4 4 4 5 5 5 5 5 6 6 5 5 4 4 4 4 5 4 3 2 3 3 4 3 4
2 2 2 2 2 1 1 1 1 2 2 3 3 3 3 3 4 4 4 5 5 5 4 5 5 7 8 7 6 6 6 5 5 5 5 4 3 2 3 3 4 3 4
2 2 2 2 2 2 1 2 2 2 2 2 3 3 3 4 6 7 6 5 5 5 5 5 5 6 9 10 11 10 9 7 7 6 6 6 6 5 3 3 3 3 4
2 2 2 2 2 2 2 2 2 2 2 3 3 3 4 5 7 8 8 5 5 5 6 5 5 6 8 6 8 10 10 12 12 8 8 8 7 6 5 5 5 5 6
2 2 2 2 2 3 2 3 3 2 3 3 3 4 4 5 7 8 8 5 5 6 6 6 6 6 7 7 6 6 7 8 9 8 7 7 7 6 7 7 6 5 4
2 3 3 2 3 3 3 3 3 3 3 3 4 4 4 6 8 9 8 5 5 6 6 6 6 6 10 11 7 7 7 7 10 12 13 12 11 11 8 4 4 4 5
3 3 3 2 2 3 3 3 3 3 4 4 4 4 5 5 8 9 9 5 5 5 5 6 9 9 11 11 7 6 8 7 6 7 8 9 8 9 10 7 6 6 4
2 2 2 3 3 3 3 3 3 3 4 4 4 4 5 6 8 9 9 5 5 5 6 5 6 11 11 12 10 7 9 8 5 6 5 5 5 5 6 6 6 6 6
1 2 2 3 3 3 2 3 3 3 3 4 4 5 4 5 7 8 9 9 8 5 6 5 6 10 11 11 9 9 11 9 4 5 5 5 5 5 5 5 6 8 7
2 2 3 3 3 3 3 3 3 3 3 4 4 4 4 4 5 8 9 10 10 6 6 8 9 11 10 8 10 11 8 5 4 5 5 5 5 5 4 4 4 5 6
2 3 3 3 3 3 3 3 3 3 3 4 4 4 4 4 4 4 5 6 8 7 6 8 10 11 9 8 8 6 5 4 4 5 5 4 3 3 4 4 4 4 4
3 3 3 3 3 3 3 3 4 4 5 5 4 4 5 5 7 9 7 5 4 5 5 4 4 4 4 4 3 4 4 3 4 3 3 4 4 4 4 4 4 4 5
3 3 3 3 3 3 3 4 6 6 8 9 9 9 7 10 12 11 11 11 10 9 6 4 5 4 4 4 4 4 3 4 3 3 3 4 4 4 4 4 4 5 5
3 4 3 3 3 3 3 4 5 6 8 9 10 11 11 11 12 11 11 11 10 8 5 4 4 4 4 4 4 4 4 3 3 3 4 4 4 4 4 4 4 5 5
3 5 4 3 3 3 4 4 4 5 5 5 7 10 11 11 11 11 10 8 5 5 4 4 4 4 4 4 4 3 3 3 2 3 3 3 4 4 4 5 5 5 5
4 3 3 3 3 4 4 4 4 4 5 5 5 6 9 10 10 10 8 4 4 4 4 4 4 3 3 3 3 3 3 3 3 3 3 3 3 4 4 5 5 7 6
4 6 5 3 3 3 4 4 4 4 4 4 5 5 5 6 5 5 5 4 3 3 3 3 3 3 3 3 3 3 3 3 3 3 3 3 4 4 5 5 5 5 5
3 4 7 5 3 4 4 4 4 4 4 4 5 7 9 4 4 5 4 4 4 4 3 3 3 3 3 3 3 3 3 3 3 3 3 3 3 4 4 5 5 5 5
3 3 3 3 3 4 4 4 4 4 4 5 5 6 10 5 4 4 4 4 4 4 4 3 3 3 3 3 3 3 3 4 4 3 3 4 4 4 4 4 5 4 4
3 3 3 3 3 5 5 4 3 4 4 5 5 5 5 4 4 4 4 4 4 4 4 4 4 4 4 5 5 4 4 4 4 4 4 4 4 4 4 5 5 5 5
3 3 4 3 3 3 4 4 4 4 4 5 5 5 5 4 5 5 4 4 4 4 5 5 5 5 6 6 6 7 7 8 8 7 7 6 5 5 5 5 5 6 5
3 3 3 3 4 4 4 4 4 4 4 5 5 5 5 4 4 4 4 4 4 5 6 6 6 6 7 7 8 8 9 10 10 8 7 5 5 5 5 6 5 5 5
3 3 3 4 4 4 4 4 4 4 4 4 4 4 4 5 5 4 4 4 4 5 6 6 7 8 8 8 9 9 10 10 10 10 8 5 5 5 5 5 5 5 5
Wind_Direction
8 315 313 291 305 304 216 255 290 301 274 216 212 216 217 226 234 226 231 232 230 239 241 237 242 245 242 246 244 239 249 248 258 269 272 247 229 238 253 250 246 249 251
331 306 298 304 310 290 249 273 309 298 291 278 233 224 227 229 234 228 236 240 235 234 239 241 243 243 239 243 242 244 246 248 255 269 275 245 236 233 234 241 255 255 257
350 331 315 302 295 290 289 307 316 301 295 293 266 235 235 233 236 238 238 243 245 242 236 238 243 238 239 241 239 242 247 255 254 260 273 257 243 238 241 254 253 254 260
333 312 299 292 283 294 315 321 311 303 289 282 274 263 249 241 242 242 243 243 248 254 248 242 241 238 239 234 237 236 240 244 247 250 266 259 246 238 223 240 258 244 257
338 317 301 310 316 309 307 300 300 301 296 296 285 281 276 251 243 241 242 243 243 250 253 251 249 249 251 247 243 235 232 236 241 248 261 261 250 237 234 238 250 259 261
324 311 315 314 314 299 284 288 281 284 289 289 282 276 275 268 261 255 253 243 243 244 250 252 254 254 256 256 257 253 243 238 237 241 252 249 251 245 243 241 245 260 264
304 304 302 299 298 291 283 281 272 274 278 277 275 272 269 277 275 264 260 255 249 250 250 250 259 259 265 254 260 261 258 255 249 242 245 244 246 237 233 240 238 242 258
290 295 294 291 290 295 284 277 277 276 273 273 277 274 277 280 282 281 274 262 253 252 251 249 249 253 256 256 252 255 253 254 253 249 246 249 244 236 226 234 241 255 272
284 288 287 283 283 287 280 278 283 281 276 271 272 268 267 276 280 282 280 264 255 256 258 254 251 247 259 261 255 253 258 259 262 256 257 258 257 257 249 234 231 242 263
277 284 292 288 278 278 275 277 281 277 273 275 277 271 267 268 275 277 276 261 257 259 260 259 259 258 262 262 250 244 252 256 258 263 264 263 260 255 249 232 220 230 248
285 297 300 293 284 281 276 275 276 278 281 278 278 278 272 272 276 276 276 261 253 256 258 258 259 264 265 266 264 251 256 260 254 249 247 250 249 242 240 240 233 226 232
293 295 295 293 291 293 278 278 278 275 276 277 275 277 274 275 279 279 279 275 271 259 261 263 262 268 270 272 270 267 266 265 252 246 247 245 244 245 243 242 246 246 244
291 285 288 292 293 290 280 273 275 269 267 273 273 275 279 279 279 285 285 284 283 269 266 270 274 275 275 274 273 270 265 257 244 239 243 247 245 245 250 251 255 252 257
286 286 285 283 286 287 283 275 268 263 262 269 273 277 284 290 286 280 275 282 285 279 274 274 278 279 276 273 272 271 259 249 243 243 245 251 252 245 245 242 246 243 253
282 283 284 282 280 282 282 277 275 263 260 265 261 263 270 275 278 281 280 275 270 270 278 274 274 275 261 261 266 264 254 250 252 250 251 254 256 254 256 249 242 241 247
284 286 285 286 282 280 285 295 294 286 286 284 281 278 276 279 286 286 285 288 290 288 283 273 270 267 264 265 264 261 257 252 248 252 254 255 256 255 257 255 248 240 246
274 284 286 286 284 283 282 284 296 303 297 294 292 291 289 290 294 293 291 291 292 294 278 269 265 263 264 265 262 260 259 259 256 249 251 256 258 257 256 253 250 250 251
276 281 285 281 282 282 282 283 285 292 303 303 300 298 302 302 301 298 297 297 292 287 272 268 265 264 263 262 262 264 267 268 262 257 258 256 254 253 253 253 249 248 255
278 274 274 275 276 278 281 282 283 286 290 299 307 310 311 313 313 312 309 287 276 277 278 277 273 270 271 267 262 260 259 261 262 260 259 259 259 259 257 256 252 257 260
274 281 285 279 275 277 277 277 278 280 286 292 298 304 310 311 310 313 313 301 285 276 274 275 278 277 274 270 266 262 261 261 260 258 257 256 255 255 257 258 257 253 254
273 278 288 290 280 277 276 275 275 276 280 284 288 294 302 300 297 297 297 294 286 279 273 270 273 273 268 269 269 267 264 262 259 257 258 257 256 260 261 260 259 256 254
269 270 272 274 278 278 276 273 276 278 279 283 291 297 302 306 299 295 293 293 292 286 276 271 271 269 260 256 255 260 263 262 256 252 255 257 257 258 260 260 260 253 250
266 270 274 275 276 281 289 285 276 275 278 281 287 292 296 295 295 294 293 294 296 295 291 282 278 279 276 268 262 249 246 256 257 250 248 253 254 254 254 255 253 247 245
266 267 271 275 274 271 273 277 277 277 277 278 280 282 284 287 288 290 291 294 294 294 291 284 279 283 283 280 274 268 264 265 264 255 240 238 245 252 252 249 251 243 240
267 270 272 273 272 271 271 272 274 276 278 278 277 280 282 284 285 286 287 286 285 286 287 286 285 283 283 281 280 277 276 275 274 266 250 238 238 243 244 244 247 242 239
262 265 268 270 271 270 270 272 273 275 276 278 278 278 278 279 281 284 288 287 287 286 286 285 286 286 287 285 283 282 282 280 278 276 265 241 232 241 242 247 244 238 237
Height
1469 1470 1470 1471 1472 1472 1473 1474 1474 1475 1476 1476 1477 1478 1479 1480 1481 1482 1482 1484 1484 1485 1486 1487 1488 1490 1491 1492 1493 1493 1494 1494 1493 1492 1494 1495 1495 1496 1496 1497 1498 1498 1499
1467 1467 1467 1467 1468 1469 1469 1470 1470 1471 1472 1472 1472 1473 1474 1475 1476 1477 1477 1478 1478 1479 1481 1482 1483 1484 1485 1486 1487 1487 1488 1489 1489 1487 1487 1488 1489 1490 1490 1491 1492 1492 1493
1463 1463 1463 1464 1464 1465 1465 1466 1466 1467 1467 1467 1468 1468 1469 1470 1471 1471 1472 1473 1473 1474 1475 1476 1477 1478 1479 1480 1481 1482 1482 1483 1483 1483 1482 1483 1483 1483 1484 1485 1486 1486 1487
1460 1460 1460 1460 1460 1461 1461 1462 1462 1462 1462 1463 1463 1464 1464 1464 1465 1466 1466 1467 1468 1468 1469 1470 1471 1472 1473 1474 1475 1476 1476 1477 1477 1477 1477 1477 1477 1477 1478 1478 1478 1479 1480
1456 1456 1456 1456 1457 1457 1457 1457 1458 1458 1458 1458 1458 1458 1459 1459 1460 1460 1461 1462 1462 1462 1463 1464 1465 1466 1467 1468 1469 1469 1470 1470 1471 1471 1471 1471 1471 1471 1472 1472 1472 1473 1473
1453 1453 1453 1453 1453 1453 1453 1453 1453 1453 1453 1454 1454 1454 1454 1454 1455 1455 1456 1456 1456 1457 1457 1458 1459 1460 1461 1462 1463 1464 1464 1465 1464 1465 1465 1465 1464 1466 1466 1466 1467 1466 1465
1450 1449 1449 1449 1449 1448 1448 1448 1448 1448 1449 1449 1449 1449 1449 1449 1450 1450 1451 1451 1451 1451 1451 1452 1453 1454 1455 1456 1456 1457 1457 1458 1459 1459 1458 1458 1459 1460 1460 1460 1461 1460 1460
1447 1446 1446 1445 1445 1445 1444 1444 1444 1444 1444 1444 1444 1444 1444 1444 1445 1445 1445 1445 1445 1445 1445 1446 1447 1447 1448 1449 1449 1450 1450 1450 1451 1452 1452 1452 1454 1454 1455 1455 1455 1454 1454
1443 1442 1442 1442 1441 1441 1440 1440 1440 1439 1439 1439 1439 1439 1439 1439 1439 1439 1440 1439 1439 1439 1439 1440 1441 1441 1442 1443 1443 1443 1443 1443 1444 1445 1445 1446 1447 1448 1448 1449 1448 1448 1446
1439 1439 1439 1438 1437 1437 1436 1436 1435 1435 1434 1434 1434 1434 1434 1434 1434 1434 1434 1434 1433 1433 1433 1434 1434 1435 1436 1436 1436 1436 1435 1436 1437 1437 1438 1439 1439 1440 1441 1441 1441 1441 1440
1436 1436 1435 1435 1434 1433 1432 1432 1431 1430 1430 1429 1429 1429 1428 1428 1428 1429 1429 1428 1428 1427 1427 1427 1428 1429 1429 1430 1429 1429 1429 1430 1430 1430 1430 1431 1431 1432 1433 1434 1434 1434 1433
1432 1432 1431 1430 1430 1429 1428 1427 1427 1426 1425 1424 1424 1423 1423 1423 1423 1423 1423 1423 1422 1422 1421 1421 1422 1422 1423 1423 1423 1422 1423 1424 1424 1423 1423 1423 1424 1424 1425 1426 1426 1427 1427
1428 1427 1427 1426 1425 1425 1424 1423 1422 1422 1421 1420 1419 1418 1418 1418 1417 1417 1417 1417 1416 1416 1415 1416 1416 1416 1416 1416 1416 1417 1417 1417 1416 1416 1416 1416 1417 1418 1418 1419 1419 1419 1420
1424 1423 1422 1422 1421 1420 1420 1419 1418 1417 1416 1416 1415 1414 1413 1413 1412 1411 1411 1411 1410 1410 1410 1409 1409 1409 1409 1409 1409 1410 1410 1410 1410 1410 1410 1411 1411 1412 1412 1411 1411 1412 1412
1421 1419 1418 1418 1417 1416 1415 1415 1414 1413 1413 1412 1411 1410 1409 1407 1407 1407 1407 1406 1405 1405 1404 1404 1403 1403 1402 1402 1403 1403 1404 1404 1404 1404 1404 1404 1405 1405 1405 1405 1405 1405 1405
1417 1416 1415 1414 1413 1412 1411 1410 1409 1409 1409 1408 1407 1407 1405 1404 1403 1402 1402 1401 1400 1400 1399 1398 1397 1397 1397 1397 1397 1397 1397 1398 1398 1398 1398 1398 1398 1398 1398 1398 1399 1398 1398
1413 1412 1411 1410 1409 1409 1407 1406 1405 1404 1404 1403 1402 1401 1400 1399 1398 1397 1396 1395 1395 1395 1394 1392 1392 1392 1392 1392 1392 1392 1392 1392 1392 1392 1392 1392 1392 1392 1392 1392 1392 1392 1392
1409 1408 1408 1407 1406 1405 1404 1403 1402 1400 1399 1397 1398 1397 1395 1394 1393 1392 1391 1390 1389 1389 1388 1388 1387 1387 1387 1387 1387 1387 1387 1387 1387 1387 1387 1387 1387 1387 1387 1386 1386 1386 1386
1405 1404 1404 1403 1402 1401 1400 1399 1398 1397 1395 1394 1393 1392 1391 1390 1388 1388 1386 1386 1384 1384 1383 1383 1383 1383 1383 1382 1382 1382 1382 1382 1382 1382 1381 1381 1381 1381 1381 1381 1381 1381 1381
1401 1401 1400 1399 1398 1397 1396 1395 1394 1393 1392 1391 1389 1388 1387 1385 1384 1382 1382 1381 1380 1379 1379 1379 1378 1378 1378 1377 1377 1377 1377 1377 1376 1376 1376 1376 1376 1376 1376 1376 1376 1376 1375
1397 1397 1396 1395 1394 1393 1393 1392 1391 1390 1388 1387 1386 1385 1384 1382 1380 1379 1378 1377 1376 1375 1375 1374 1374 1374 1373 1373 1372 1372 1372 1371 1371 1371 1371 1371 1371 1371 1371 1371 1371 1371 1371
1394 1393 1392 1391 1390 1389 1389 1388 1387 1386 1384 1383 1381 1381 1380 1378 1376 1375 1374 1373 1372 1371 1370 1370 1369 1369 1368 1368 1367 1367 1367 1366 1366 1366 1366 1366 1366 1366 1366 1366 1366 1366 1366
1390 1389 1388 1387 1386 1385 1385 1383 1383 1381 1380 1379 1378 1376 1375 1374 1373 1372 1370 1369 1368 1367 1366 1365 1364 1364 1363 1363 1363 1362 1362 1361 1361 1361 1361 1361 1361 1361 1361 1361 1361 1361 1361
1386 1385 1384 1383 1382 1381 1380 1379 1378 1377 1376 1375 1374 1373 1371 1370 1369 1367 1366 1365 1364 1363 1362 1361 1360 1360 1359 1358 1358 1357 1357 1357 1356 1356 1356 1356 1356 1356 1356 1356 1356 1356 1356
1383 1381 1380 1380 1379 1377 1376 1375 1374 1373 1372 1371 1370 1369 1367 1366 1365 1364 1362 1361 1360 1359 1358 1357 1356 1355 1355 1354 1353 1352 1352 1352 1352 1352 1352 1352 1352 1352 1352 1351 1351 1351 1352
1379 1378 1377 1376 1375 1374 1373 1371 1370 1369 1368 1367 1366 1365 1364 1362 1361 1360 1359 1357 1356 1355 1354 1353 1352 1351 1350 1350 1349 1348 1348 1348 1348 1348 1348 1348 1347 1347 1347 1347 1347 1347 1347